UAL7632 KSLC-KDEN

Flight info

Callsign UAL7632
Flight time N/A
Altitude 33000
Route KSLC/16L N0453F330 RUGGD3 PERTY DCT KAMPR LONGZ3 KDEN/34R
Aircraft B739/M-SDE2E3FGHIRWXY/LB1

Departure

Time 2026-05-05 02:39
Airport Salt Lake City International Airport (KSLC)

Arrival

Time N/A
Airport Denver International Airport (KDEN)
Time Latitude Longitude Altitude Speed Heading
2026-05-05 02:07 40.78812 -111.98946 4243 ft 0 kts 355°
2026-05-05 02:27 40.78805 -111.98945 4234 ft 2 kts 355°
2026-05-05 02:27 40.78789 -111.98943 4232 ft 2 kts 355°
2026-05-05 02:27 40.78773 -111.98941 4232 ft 2 kts 355°
2026-05-05 02:28 40.78760 -111.98940 4233 ft 0 kts 345°
2026-05-05 02:30 40.78762 -111.98940 4232 ft 1 kts 352°
2026-05-05 02:30 40.78765 -111.98932 4233 ft 1 kts 69°
2026-05-05 02:30 40.78759 -111.98902 4231 ft 6 kts 111°
2026-05-05 02:31 40.78751 -111.98819 4234 ft 12 kts 84°
2026-05-05 02:31 40.78761 -111.98683 4234 ft 18 kts 85°
2026-05-05 02:31 40.78773 -111.98504 4234 ft 21 kts 85°
2026-05-05 02:31 40.78786 -111.98299 4234 ft 23 kts 85°
2026-05-05 02:32 40.78800 -111.98097 4232 ft 20 kts 85°
2026-05-05 02:32 40.78811 -111.97939 4234 ft 11 kts 85°
2026-05-05 02:32 40.78817 -111.97844 4234 ft 10 kts 85°
2026-05-05 02:32 40.78822 -111.97757 4234 ft 9 kts 85°
2026-05-05 02:33 40.78854 -111.97698 4234 ft 8 kts 18°
2026-05-05 02:33 40.78912 -111.97699 4233 ft 8 kts 355°
2026-05-05 02:33 40.78967 -111.97706 4234 ft 8 kts 354°
2026-05-05 02:33 40.79031 -111.97713 4234 ft 11 kts 355°
2026-05-05 02:34 40.79120 -111.97723 4234 ft 15 kts 355°
2026-05-05 02:34 40.79235 -111.97736 4232 ft 18 kts 354°
2026-05-05 02:34 40.79356 -111.97751 4234 ft 17 kts 355°
2026-05-05 02:34 40.79472 -111.97764 4233 ft 17 kts 355°
2026-05-05 02:35 40.79592 -111.97778 4233 ft 19 kts 355°
2026-05-05 02:35 40.79739 -111.97796 4233 ft 22 kts 355°
2026-05-05 02:35 40.79892 -111.97813 4233 ft 22 kts 354°
2026-05-05 02:35 40.80042 -111.97831 4234 ft 21 kts 356°
2026-05-05 02:36 40.80184 -111.97847 4234 ft 19 kts 355°
2026-05-05 02:36 40.80312 -111.97834 4234 ft 18 kts 15°
2026-05-05 02:36 40.80413 -111.97824 4234 ft 10 kts 355°
2026-05-05 02:36 40.80483 -111.97831 4234 ft 10 kts 355°
2026-05-05 02:37 40.80550 -111.97841 4234 ft 10 kts 354°
2026-05-05 02:37 40.80622 -111.97847 4234 ft 10 kts 356°
2026-05-05 02:37 40.80691 -111.97854 4233 ft 10 kts 354°
2026-05-05 02:37 40.80753 -111.97831 4232 ft 10 kts 53°
2026-05-05 02:38 40.80751 -111.97751 4231 ft 9 kts 124°
2026-05-05 02:38 40.80702 -111.97701 4231 ft 9 kts 152°
2026-05-05 02:38 40.80588 -111.97678 4234 ft 37 kts 176°
2026-05-05 02:38 40.80101 -111.97619 4236 ft 103 kts 174°
2026-05-05 02:39 40.79197 -111.97515 4234 ft 156 kts 175°
2026-05-05 02:39 40.77987 -111.97328 4354 ft 188 kts 171°
2026-05-05 02:39 40.76671 -111.97148 4990 ft 191 kts 175°
2026-05-05 02:39 40.75325 -111.97366 5602 ft 202 kts 198°
2026-05-05 02:40 40.74155 -111.98421 6138 ft 213 kts 228°
2026-05-05 02:40 40.73476 -112.00234 6350 ft 231 kts 257°
2026-05-05 02:40 40.73528 -112.02364 6795 ft 238 kts 285°
2026-05-05 02:40 40.74378 -112.04267 7152 ft 248 kts 316°
2026-05-05 02:41 40.75626 -112.05737 8012 ft 230 kts 313°
2026-05-05 02:41 40.76609 -112.07395 8482 ft 237 kts 304°
2026-05-05 02:41 40.77633 -112.09230 8588 ft 258 kts 305°
2026-05-05 02:41 40.78746 -112.11206 8732 ft 279 kts 306°
2026-05-05 02:42 40.79954 -112.13327 8944 ft 297 kts 306°
2026-05-05 02:42 40.81196 -112.15508 9731 ft 297 kts 305°
2026-05-05 02:42 40.82420 -112.17699 10431 ft 299 kts 305°
2026-05-05 02:42 40.83681 -112.19932 10892 ft 311 kts 310°
2026-05-05 02:43 40.85384 -112.21839 11026 ft 334 kts 331°
2026-05-05 02:43 40.87645 -112.22832 11185 ft 355 kts 353°
2026-05-05 02:43 40.90152 -112.22653 11441 ft 369 kts 14°
2026-05-05 02:43 40.92503 -112.21255 11985 ft 374 kts 35°
2026-05-05 02:44 40.94352 -112.18852 12655 ft 375 kts 54°
2026-05-05 02:44 40.95766 -112.15941 13319 ft 378 kts 59°
2026-05-05 02:44 40.96963 -112.12835 13853 ft 382 kts 72°
2026-05-05 02:44 40.97249 -112.09352 14407 ft 384 kts 97°
2026-05-05 02:45 40.96690 -112.05894 15025 ft 386 kts 102°
2026-05-05 02:45 40.96202 -112.02387 15553 ft 390 kts 99°
2026-05-05 02:45 40.95827 -111.98820 16076 ft 394 kts 97°
2026-05-05 02:45 40.95512 -111.95258 16617 ft 397 kts 96°
2026-05-05 02:46 40.95216 -111.91619 17159 ft 400 kts 96°
2026-05-05 02:46 40.94925 -111.87945 17669 ft 403 kts 96°
2026-05-05 02:46 40.94631 -111.84237 18172 ft 407 kts 96°
2026-05-05 02:46 40.94332 -111.80505 18632 ft 410 kts 96°
2026-05-05 02:47 40.94027 -111.76749 19120 ft 412 kts 97°
2026-05-05 02:47 40.93718 -111.72972 19611 ft 414 kts 97°
2026-05-05 02:47 40.93404 -111.69172 20062 ft 417 kts 97°
2026-05-05 02:47 40.93085 -111.65345 20516 ft 420 kts 97°
2026-05-05 02:48 40.92764 -111.61497 20971 ft 422 kts 97°
2026-05-05 02:48 40.92440 -111.57626 21428 ft 425 kts 97°
2026-05-05 02:48 40.92113 -111.53734 21879 ft 427 kts 97°
2026-05-05 02:48 40.91782 -111.49810 22301 ft 430 kts 98°
2026-05-05 02:49 40.91449 -111.45871 22733 ft 433 kts 98°
2026-05-05 02:49 40.91111 -111.41902 23167 ft 436 kts 98°
2026-05-05 02:49 40.90755 -111.37913 23562 ft 438 kts 99°
2026-05-05 02:49 40.90318 -111.33916 23902 ft 441 kts 100°
2026-05-05 02:50 40.89833 -111.29901 24251 ft 444 kts 101°
2026-05-05 02:50 40.89331 -111.25863 24588 ft 446 kts 101°
2026-05-05 02:50 40.88828 -111.21803 24925 ft 449 kts 101°
2026-05-05 02:50 40.88327 -111.17725 25266 ft 452 kts 101°
2026-05-05 02:51 40.87827 -111.13611 25593 ft 454 kts 101°
2026-05-05 02:51 40.87329 -111.09479 25908 ft 457 kts 100°
2026-05-05 02:51 40.86830 -111.05323 26211 ft 460 kts 101°
2026-05-05 02:51 40.86326 -111.01137 26534 ft 462 kts 101°
2026-05-05 02:52 40.85820 -110.96938 26845 ft 465 kts 101°
2026-05-05 02:52 40.85309 -110.92713 27138 ft 467 kts 101°
2026-05-05 02:52 40.84794 -110.88465 27418 ft 470 kts 101°
2026-05-05 02:52 40.84273 -110.84187 27703 ft 473 kts 101°
2026-05-05 02:53 40.83748 -110.79897 28002 ft 475 kts 101°
2026-05-05 02:53 40.83218 -110.75576 28300 ft 477 kts 101°
2026-05-05 02:53 40.82687 -110.71253 28655 ft 477 kts 101°
2026-05-05 02:53 40.82154 -110.66931 29106 ft 476 kts 101°
2026-05-05 02:54 40.81621 -110.62626 29546 ft 475 kts 101°
2026-05-05 02:54 40.81086 -110.58319 29920 ft 475 kts 101°
2026-05-05 02:54 40.80549 -110.54005 30181 ft 477 kts 101°
2026-05-05 02:54 40.80007 -110.49676 30381 ft 480 kts 101°
2026-05-05 02:55 40.79460 -110.45315 30605 ft 482 kts 101°
2026-05-05 02:55 40.78911 -110.40949 30868 ft 484 kts 102°
2026-05-05 02:55 40.78357 -110.36561 31101 ft 485 kts 102°
2026-05-05 02:55 40.77801 -110.32168 31299 ft 488 kts 102°
2026-05-05 02:56 40.77240 -110.27750 31530 ft 489 kts 102°
2026-05-05 02:56 40.76675 -110.23312 31764 ft 490 kts 102°
2026-05-05 02:56 40.76108 -110.18875 31979 ft 492 kts 102°
2026-05-05 02:56 40.75538 -110.14422 32250 ft 493 kts 102°
2026-05-05 02:57 40.74973 -110.10021 32457 ft 494 kts 102°
2026-05-05 02:57 40.74397 -110.05543 32651 ft 496 kts 102°
2026-05-05 02:57 40.73943 -110.01020 32815 ft 499 kts 98°
2026-05-05 02:58 40.73336 -109.91866 32793 ft 502 kts 96°
2026-05-05 02:58 40.72800 -109.82721 32795 ft 500 kts 97°
2026-05-05 02:59 40.72213 -109.73606 32789 ft 498 kts 97°
2026-05-05 02:59 40.71589 -109.64509 32802 ft 498 kts 97°
2026-05-05 03:00 40.70951 -109.55410 32790 ft 500 kts 97°
2026-05-05 03:00 40.70307 -109.46272 32794 ft 501 kts 97°
2026-05-05 03:01 40.69655 -109.37109 32784 ft 504 kts 97°
2026-05-05 03:01 40.68993 -109.27908 32768 ft 506 kts 97°
2026-05-05 03:02 40.68322 -109.18672 32743 ft 508 kts 97°
2026-05-05 03:02 40.67640 -109.09389 32748 ft 509 kts 97°
2026-05-05 03:03 40.66970 -109.00088 32749 ft 511 kts 97°
2026-05-05 03:03 40.66375 -108.90739 32748 ft 513 kts 96°
2026-05-05 03:04 40.65786 -108.81356 32739 ft 514 kts 96°
2026-05-05 03:04 40.65179 -108.71973 32748 ft 514 kts 97°
2026-05-05 03:05 40.64557 -108.62603 32744 ft 514 kts 97°
2026-05-05 03:05 40.64033 -108.54815 32748 ft 513 kts 97°
2026-05-05 03:06 40.63292 -108.43941 32755 ft 513 kts 97°
2026-05-05 03:06 40.62754 -108.36111 32756 ft 513 kts 97°
2026-05-05 03:07 40.62102 -108.26749 32766 ft 514 kts 97°
2026-05-05 03:07 40.61442 -108.17365 32763 ft 515 kts 97°
2026-05-05 03:08 40.60773 -108.07981 32772 ft 515 kts 97°
2026-05-05 03:08 40.60097 -107.98590 32785 ft 516 kts 97°
2026-05-05 03:09 40.59413 -107.89195 32819 ft 516 kts 97°
2026-05-05 03:09 40.59068 -107.84500 32833 ft 516 kts 97°
2026-05-05 03:10 40.58024 -107.70419 32889 ft 515 kts 97°
2026-05-05 03:10 40.57439 -107.62629 32910 ft 515 kts 97°
2026-05-05 03:11 40.56613 -107.51677 32911 ft 514 kts 97°
2026-05-05 03:11 40.56023 -107.43900 32916 ft 514 kts 97°
2026-05-05 03:12 40.55427 -107.36131 32908 ft 514 kts 97°